Regional Weather Roundup
Issued by NWS

Home | Current Version | Previous Version | Graphics & Text | Print | Product List | Glossary On
Versions: 1 2 3 4 5 6 7 8 9 10 11 12 13 14 15 16 17 18 19 20 21 22 23 24 25 26 27 28 29 30 31 32 33 34 35 36 37 38 39 40 41 42 43 44 45 46 47 48 49 50
917
ASUS45 KABQ 230501
RWRNM
NEW MEXICO REGIONAL WEATHER ROUNDUP
NATIONAL WEATHER SERVICE ALBUQUERQUE NM
1000 PM MST WED FEB 22 2017

NOTE: "FAIR" MEANS FEW OR NO CLOUDS BELOW 12,000 FEET AGL WITH NO
       SIGNIFICANT WEATHER OR OBSTRUCTIONS TO VISION.

      THIS PRODUCT IS RELEASED AS TWO VERSIONS.  ONE VERSION NEAR
      THE TOP OF THE HOUR CONTAINING PRELIMINARY DATA FROM ALBUQUERQUE
      AND OTHER STATIONS.  A FINAL VERSION WITH ADDITIONAL DATA IS
      ISSUED ABOUT 10 MINUTES AFTER THE HOUR.

NMZ501-503-504-510>518-230600-
NORTHWEST PLATEAU/NORTHCENTRAL MOUNTAINS

CITY           SKY/WX    TMP DP  RH WIND       PRES   REMARKS
FARMINGTON     FAIR      50  16  25 SW10      29.74F
LOS ALAMOS     CLOUDY    47  22  36 W18G33    29.88F
SANTA FE       CLOUDY    48  28  46 S9        29.89F
TAOS             N/A     45  21  39 SW6       29.88F
ANGEL FIRE     LGT SNOW  33  31  92 S12G18    29.93F WCI  24

$$
NMZ402-403-502-505>509-230600-
WESTCENTRAL MOUNTAINS/SOUTHWEST MOUNTAINS

CITY           SKY/WX    TMP DP  RH WIND       PRES   REMARKS
GALLUP         FAIR      48  20  32 SW14G31   29.83F
GRANTS         CLOUDY    50  22  32 S20G25    29.92F
SILVER CITY    FAIR      52  36  54 NW14      29.92F

$$
NMZ407-409-411-412-230600-
SOUTHERN DESERTS

CITY           SKY/WX    TMP DP  RH WIND       PRES   REMARKS
DEMING         FAIR      54  35  48 S5        29.90S
LAS CRUCES     FAIR      55  32  42 W9        29.90S
HOLLOMAN AFB   FAIR      60  30  32 SE8       29.88F
ALAMOGORDO     FAIR      57  28  33 SE8       29.87F
T OR C         FAIR      62  31  31 SW12      29.85F

$$
NMZ519>523-230600-
CENTRAL VALLEYS/CENTRAL HIGHLANDS

CITY           SKY/WX    TMP DP  RH WIND       PRES   REMARKS
ALBUQUERQUE    FAIR      53  28  38 VRB3      29.88F
DOUBLE EAGLE   PTCLDY    41  27  56 SW9       29.88F
MORIARTY ARPT  FAIR      49  32  51 W7        29.91F
CLINES CORNERS FAIR      44  28  53 NW13      29.92S
BELEN          FAIR      48  31  52 NW5       29.87F
SOCORRO        FAIR      57  29  33 SW7       29.85S

$$
NMZ524>526-539-540-230600-
SOUTHCENTRAL MOUNTAINS

CITY           SKY/WX    TMP DP  RH WIND       PRES   REMARKS
RUIDOSO        NOT AVBL

$$
NMZ527>531-230600-
NORTHEAST HIGHLANDS/NORTHEAST PLAINS

CITY           SKY/WX    TMP DP  RH WIND       PRES   REMARKS
RATON          MOCLDY    46  28  49 W28G38    29.84S
CLAYTON        FAIR      57  31  37 W23G43    29.74F

$$
NMZ532>537-230600-
EASTCENTRAL PLAINS

CITY           SKY/WX    TMP DP  RH WIND       PRES   REMARKS
TUCUMCARI      FAIR      51  32  48 W5        29.77F
CANNON AFB     FAIR      52  31  45 CALM      29.79F
CLOVIS AIRPORT FAIR      48  34  57 NW6       29.79F

$$
NMZ028-029-538-230600-
SOUTHEAST PLAINS

CITY           SKY/WX    TMP DP  RH WIND       PRES   REMARKS
ROSWELL        FAIR      53  28  38 W8          N/A
ARTESIA        FAIR      64  30  27 SW9       29.80F
CARLSBAD       FAIR      59  23  25 S3        29.80S
HOBBS          FAIR      54  23  30 SW7       29.84S HAZE


$$




USA.gov is the U.S. government's official web portal to all federal, state and local government web resources and services.